Location: Newark
(36.0000°N, 138.0000°E)
Time: 11:33:19
(UTC+00:00)

Envisat - Visible Passes

Search period start: 16 October 2019 00:00
Search period end: 26 October 2019 00:00
Orbit: 764 x 766 km, 98.1° (Epoch: 16 October)

Date Brightness Start Highest point End Pass type
(mag) Time Alt. Az. Time Alt. Az. Time Alt. Az.
16 Oct 5.4 09:56:43 10° SSW 10:00:42 23° W 10:04:43 10° NW visible
17 Oct 3.8 09:18:50 10° S 09:23:47 55° W 09:28:46 10° NNW visible
18 Oct 3.0 08:42:03 10° SSE 08:47:02 63° ENE 08:52:03 10° N visible
18 Oct 6.1 10:24:21 10° WSW 10:26:26 12° W 10:28:32 10° WNW visible
19 Oct 5.0 09:44:58 10° SSW 09:49:22 30° W 09:53:48 10° NW visible
19 Oct 6.7 20:20:07 10° ENE 20:21:28 11° E 20:22:50 10° ESE visible
20 Oct 3.3 09:07:27 10° S 09:12:30 72° WSW 09:17:34 10° NNW visible
21 Oct 3.2 08:30:58 10° SSE 08:35:49 49° ENE 08:40:41 10° N visible
21 Oct 5.9 10:11:56 10° SW 10:15:04 16° W 10:18:12 10° NW visible
22 Oct 4.5 09:33:22 10° SSW 09:38:04 38° W 09:42:47 10° NNW visible
23 Oct 3.0 08:56:11 10° SSE 09:01:15 89° ENE 09:06:21 10° NNW visible
24 Oct 3.5 08:19:58 10° SE 08:24:37 38° ENE 08:29:17 10° N visible
24 Oct 5.5 09:59:55 10° SW 10:03:42 21° W 10:07:31 10° NW visible
24 Oct 6.2 20:32:44 10° NE 20:35:52 16° E 20:38:59 10° SE visible
25 Oct 3.9 09:21:52 10° S 09:26:46 50° W 09:31:41 10° NNW visible
